Regional Weather Roundup
Issued by NWS

Home | Current Version | Previous Version | Text Only | Print | Product List | Glossary On
Versions: 1 2 3 4 5 6 7 8 9 10 11 12 13 14 15 16 17 18 19 20 21 22 23 24 25 26 27
000
ASUS44 KJAN 191110
RWRMS

MISSISSIPPI HOURLY WEATHER ROUNDUP
NATIONAL WEATHER SERVICE JACKSON MS
500 AM CST THU JAN 19 2017

NOTE: "FAIR: INDICATES FEW OR NO CLOUDS BELOW 12,000 FEET WITH NO
SIGNIFICANT WEATHER AND/OR OBSTRUCTIONS TO VISIBILITY.

MSZ001>002-007>008-010>013-018>021-025>028-034>036-191200-
NORTHWEST MISSISSIPPI

CITY           SKY/WX    TMP DP  RH WIND       PRES   REMARKS
BATESVILLE     CLOUDY    58  57  97 CALM      29.89F FOG
CLARKSDALE     CLOUDY    54  54 100 E5        29.87F FOG
CLEVELAND      CLOUDY    64  64 100 S8        29.86F
GREENWOOD      CLOUDY    66  63  90 S9        29.88F
GREENVILLE     LGT RAIN  64  62  93 S6        29.85F FOG
OXFORD         CLOUDY    57  57 100 SE8       29.92F
TUNICA         CLOUDY    52  52 100 E6        29.88F FOG
WINONA         CLOUDY    64  64 100 S9        29.90F
$$

MSZ003>006-009-014>017-022>024-029>033-037>039-191200-
NORTHEAST MISSISSIPPI

CITY           SKY/WX    TMP DP  RH WIND       PRES   REMARKS
COLUMBUS AFB   MOCLDY    64  63  94 SE7       29.95F
CORINTH        FAIR      54  54 100 CALM      29.94S
GOLDN TRIANGLE CLOUDY    63  57  82 S9        29.90F
STARKVILLE     LGT RAIN  61  61 100 S7        29.95S
TUPELO         CLOUDY    61  58  90 SE8       29.93F
$$

MSZ040-058-191200-
CENTRAL MISSISSIPPI

CITY           SKY/WX    TMP DP  RH WIND       PRES   REMARKS
JACKSON INTL   LGT RAIN  68  66  93 S13       29.89F
JACKSON HAWKNS LGT RAIN  67  66  97 SE10      29.90F FOG
MADISON        CLOUDY    64  64 100 SE6       29.90F
MERIDIAN KEY   LGT RAIN  66  66 100 S6        29.97S FOG
MERIDIAN NAS   LGT RAIN  65  61  87 SE6       29.97F
RAYMOND        DRIZZLE   68  66  94 S9        29.88F
VICKSBURG VKS  CLOUDY    68  66  94 SE3       29.88S FOG
$$

MSZ059>079-191200-
SOUTH MISSISSIPPI

CITY           SKY/WX    TMP DP  RH WIND       PRES   REMARKS
BROOKHAVEN     HVY RAIN  68  66  94 E3        29.93F
HATTIESBURG    CLOUDY    68  67  96 SE3       29.96F
LAUREL         CLOUDY    66  66 100 S3        29.97S
MCCOMB         LGT RAIN  69  67  93 SE10      29.90F FOG
NATCHEZ        CLOUDY    64  61  88 S3        29.89R
PINE BELT      CLOUDY    66  64  94 SE8       29.97F
$$

MSZ080>082-191200-
COASTAL MISSISSIPPI

CITY           SKY/WX    TMP DP  RH WIND       PRES   REMARKS
BILOXI         NOT AVBL
PASCAGOULA     HVY RAIN  69  67  93 SE6       29.97F VSB 1
GULFPORT       FOG       68  68 100 SE8       29.96S VSB 3/4
$$

LAZ007>009-015>016-023>026-191200-
NORTHEAST LOUISIANA

CITY           SKY/WX    TMP DP  RH WIND       PRES   REMARKS
BASTROP        LGT RAIN  57  57  98 CALM      29.85F
TALLULAH/VBURG LGT RAIN  67  66  97 S12       29.87F
VIDALIA        TSTM      64  64  99 NW3       29.91S
$$




USA.gov is the U.S. government's official web portal to all federal, state and local government web resources and services.